1514368800.73,44683,8.06,71982.0,-4.65,-6.89,-6.89,0,*5A
1514368801.93,44684,8.06,71954.0,-4.65,-6.77,-6.73,0,*59
1514368803.16,44685,8.06,71946.8,-4.63,-6.63,-6.59,0,*53
1514368804.4,44686,8.06,71912.3,-4.63,-6.73,-6.63,0,*58
1514368805.59,44687,8.06,71934.8,-4.61,-6.85,-6.89,0,*56
1514368806.84,44688,8.06,71920.5,-4.61,-6.97,-6.93,0,*51
1514368808.04,44689,8.06,71924.5,-4.61,-6.81,-6.73,0,*59
1514368809.25,44690,8.06,71918.8,-4.63,-6.73,-6.73,0,*5E
1514368810.44,44691,8.06,71938.3,-4.61,-6.85,-6.73,0,*54
1514368811.64,44692,8.06,71946.3,-4.61,-6.47,-6.35,0,*5B
1514368812.88,44693,8.06,71844.0,-4.61,-7.05,-6.93,0,*51
1514368814.09,44694,8.06,71836.5,-4.61,-7.15,-7.05,0,*59
1514368815.29,44695,8.0,71892.8,-4.61,-7.15,-7.11,0,*5D
1514368816.51,44696,8.06,71912.8,-4.61,-7.39,-7.23,0,*51
1514368817.77,44697,8.06,71908.3,-4.59,-7.05,-6.97,0,*5A
1514368818.99,44698,8.0,71868.8,-4.59,-6.59,-6.59,0,*5F
1514368820.19,44699,8.0,71846.0,-4.57,-6.81,-6.77,0,*59
1514368821.42,44700,8.0,71850.5,-4.57,-7.05,-7.05,0,*51
1514368822.68,44701,8.06,71888.8,-4.59,-7.05,-7.05,0,*5E
1514368823.89,44702,8.06,71896.5,-4.59,-6.47,-6.47,0,*5D
1514368825.09,44703,8.0,71906.8,-4.57,-6.39,-6.31,0,*5A
1514368826.28,44704,8.06,71884.8,-4.57,-6.13,-6.13,0,*55
1514368827.5,44705,8.0,71888.5,-4.55,-6.31,-6.31,0,*56
1514368828.76,44706,8.0,71892.0,-4.55,-7.05,-7.01,0,*51
1514368830.02,44707,8.06,71910.0,-4.51,-7.01,-7.01,0,*50
1514368831.27,44708,8.0,71916.0,-4.55,-7.01,-6.81,0,*52
1514368832.49,44709,8.0,71936.0,-4.55,-6.43,-6.47,0,*5E
1514368833.73,44710,8.06,71932.8,-4.51,-6.63,-6.59,0,*5F
1514368834.95,44711,8.06,71940.5,-4.51,-6.59,-6.47,0,*58
1514368836.21,44712,8.06,71892.3,-4.51,-6.27,-6.23,0,*50
1514368837.42,44713,8.06,71900.5,-4.51,-6.89,-6.89,0,*55
1514368838.67,44714,8.0,71918.5,-4.51,-6.19,-6.09,0,*53
1514368839.91,44715,8.06,71928.3,-4.49,-5.81,-5.69,0,*5C
1514368841.17,44716,8.0,71932.3,-4.47,-5.81,-5.77,0,*5E
1514368842.37,44717,8.06,71930.8,-4.45,-6.13,-6.05,0,*53
1514368843.61,44718,8.0,71950.0,-4.43,-5.61,-5.47,0,*59
1514368844.85,44719,8.0,71952.0,-4.43,-6.19,-6.01,0,*55
1514368846.09,44720,8.06,71950.0,-4.43,-6.19,-6.09,0,*57
1514368847.33,44721,8.06,71942.5,-4.39,-6.39,-6.27,0,*55
1514368848.54,44722,8.0,71956.0,-4.41,-6.27,-6.13,0,*51
1514368849.73,44723,8.06,71980.3,-4.41,-6.13,-6.05,0,*50
1514368850.95,44724,8.0,71916.8,-4.37,-6.01,-5.89,0,*52
1514368852.14,44725,8.0,71902.3,-4.37,-6.69,-6.59,0,*53
1514368853.35,44726,8.0,71996.3,-4.37,-7.01,-6.85,0,*5E
1514368854.63,44727,8.06,71978.3,-4.35,-7.61,-7.61,0,*50
1514368855.88,44728,8.0,71844.8,-4.39,-7.53,-7.43,0,*52
1514368857.14,44729,8.06,71858.3,-4.39,-7.31,-7.27,0,*55
1514368858.35,44730,8.0,71862.3,-4.39,-7.53,-7.53,0,*5A
1514368859.56,44731,8.0,71876.3,-4.39,-7.83,-7.83,0,*5B
1514368860.83,44732,8.0,71864.0,-4.39,-8.11,-8.11,0,*58
1514368862.05,44733,8.0,71868.0,-4.39,-7.87,-7.87,0,*59
1514368863.29,44734,8.06,71894.5,-4.41,-7.77,-7.57,0,*53
1514368864.51,44735,8.06,71914.8,-4.41,-8.51,-8.25,0,*53
1514368865.7,44736,8.06,71904.3,-4.45,-8.33,-8.17,0,*51
1514368866.96,44737,8.0,71910.3,-4.43,-7.91,-7.73,0,*5C
1514368868.21,44738,8.0,71890.8,-4.43,-7.83,-7.57,0,*56
1514368869.45,44739,8.06,71918.5,-4.45,-8.07,-7.95,0,*5C
1514368870.67,44740,8.0,71868.8,-4.45,-7.61,-7.49,0,*5C
1514368871.94,44741,8.0,71884.0,-4.43,-7.69,-7.43,0,*59
1514368873.18,44742,8.0,71878.8,-4.45,-8.07,-8.03,0,*50
1514368874.42,44743,8.0,71902.5,-4.43,-7.83,-7.69,0,*57
1514368875.69,44744,8.0,71908.0,-4.47,-7.77,-7.65,0,*53
1514368876.93,44745,8.0,71920.0,-4.49,-7.77,-7.73,0,*5B
1514368878.14,44746,8.06,71918.8,-4.47,-8.41,-8.41,0,*52
1514368879.38,44747,8.06,71940.3,-4.49,-7.99,-7.95,0,*51
1514368880.62,44748,8.0,71870.5,-4.47,-7.87,-7.77,0,*53
1514368881.86,44749,8.0,71904.3,-4.49,-7.91,-7.99,0,*5B
1514368883.1,44750,8.0,71934.3,-4.49,-7.95,-7.99,0,*57
1514368884.34,44751,8.0,71962.0,-4.55,-7.87,-7.99,0,*58
1514368885.61,44752,8.0,71976.8,-4.51,-7.65,-7.65,0,*50
1514368886.87,44753,8.0,71940.3,-4.55,-7.39,-7.31,0,*5D
1514368888.13,44754,8.0,71936.3,-4.51,-7.27,-7.27,0,*56
1514368889.4,44755,8.06,71932.8,-4.55,-7.43,-7.31,0,*56
1514368890.64,44756,8.0,71944.5,-4.51,-7.15,-6.97,0,*5F
1514368891.91,44757,8.06,71894.3,-4.51,-7.77,-7.77,0,*55
1514368893.18,44758,8.06,71944.5,-4.55,-7.73,-7.57,0,*58
1514368894.4,44759,8.06,71956.0,-4.51,-7.15,-7.19,0,*57
1514368895.64,44760,8.0,71922.8,-4.51,-6.89,-6.97,0,*5E
1514368896.86,44761,8.0,71962.8,-4.51,-6.73,-6.73,0,*50
1514368898.12,44762,8.0,71990.0,-4.51,-7.01,-7.05,0,*57
1514368899.34,44763,8.0,71896.8,-4.55,-7.87,-7.87,0,*56
1514368900.58,44764,8.0,71788.3,-4.55,-8.97,-9.11,0,*5E
1514368901.82,44765,8.0,71904.5,-4.55,-8.17,-8.51,0,*52
1514368903.05,44766,8.0,71900.5,-4.55,-8.81,-9.19,0,*53
1514368904.32,44767,8.0,71930.8,-4.59,-9.37,-9.41,0,*5F
1514368905.53,44768,8.0,71926.0,-4.59,-9.27,-9.23,0,*55
1514368906.72,44769,8.0,71958.3,-4.61,-8.67,-8.59,0,*56
1514368907.99,44770,8.0,71964.3,-4.63,-8.11,-8.11,0,*51
1514368909.18,44771,8.0,71952.0,-4.61,-8.33,-8.21,0,*51
1514368910.39,44772,8.0,71974.3,-4.63,-8.21,-8.21,0,*53
1514368911.63,44773,8.0,71976.0,-4.63,-7.95,-7.83,0,*55
1514368912.87,44774,8.0,71960.0,-4.63,-7.95,-7.83,0,*52
1514368914.12,44775,8.0,71948.5,-4.65,-7.95,-8.07,0,*56
1514368915.32,44776,8.0,71928.5,-4.65,-8.21,-8.25,0,*55
1514368916.54,44777,8.0,71916.3,-4.65,-7.95,-7.83,0,*57
1514368917.74,44778,8.0,71926.3,-4.65,-7.19,-7.15,0,*53
1514368918.98,44779,8.0,71918.3,-4.65,-7.77,-7.69,0,*51
1514368920.25,44780,8.0,71914.8,-4.67,-7.99,-7.99,0,*5A
1514368921.5,44781,8.0,71918.0,-4.67,-8.07,-8.17,0,*5A
1514368922.74,44782,8.0,71912.8,-4.67,-8.17,-8.11,0,*5E
1514368923.99,44783,8.0,71908.8,-4.69,-7.95,-7.87,0,*54
1514368925.25,44784,8.0,71898.3,-4.69,-8.11,-8.11,0,*50
1514368926.44,44785,8.06,71888.3,-4.71,-8.21,-8.29,0,*50
1514368927.67,44786,8.0,71906.3,-4.71,-8.03,-7.99,0,*57
1514368928.87,44787,8.0,71948.5,-4.71,-7.19,-7.19,0,*5A
1514368930.09,44788,8.0,71948.0,-4.71,-6.93,-6.85,0,*52
1514368931.28,44789,8.0,71914.0,-4.71,-6.77,-6.77,0,*54
1514368932.55,44790,8.0,71920.3,-4.69,-7.73,-7.69,0,*5E
1514368933.76,44791,8.06,71922.0,-4.71,-7.87,-7.77,0,*52
1514368934.95,44792,8.0,71898.5,-4.71,-8.21,-8.29,0,*56
1514368936.22,44793,8.0,71888.0,-4.73,-8.11,-8.03,0,*5E
1514368937.43,44794,8.0,71882.0,-4.73,-8.45,-8.67,0,*5A
1514368938.68,44795,8.0,71870.5,-4.73,-8.11,-8.21,0,*58
1514368939.89,44796,8.0,71882.3,-4.77,-8.21,-8.33,0,*5F
1514368941.1,44797,8.0,71900.0,-4.79,-8.51,-8.55,0,*57
1514368942.3,44798,8.0,71934.3,-4.79,-8.29,-8.37,0,*53
1514368943.49,44799,8.0,71946.3,-4.79,-8.21,-8.25,0,*59
1514368944.73,44800,8.0,71962.0,-4.81,-8.51,-8.55,0,*51
1514368945.94,44801,8.0,71974.5,-4.81,-8.21,-8.25,0,*50
1514368947.22,44802,8.0,71978.3,-4.81,-7.57,-7.57,0,*57
1514368948.44,44803,8.0,71966.3,-4.81,-8.29,-8.37,0,*59
1514368949.66,44804,8.0,71932.0,-4.85,-8.59,-8.55,0,*59
1514368950.85,44805,8.0,71906.5,-4.83,-8.41,-8.33,0,*57
1514368952.04,44806,8.0,71904.3,-4.83,-8.25,-8.29,0,*5D
1514368953.31,44807,8.0,71910.0,-4.85,-8.03,-8.03,0,*56
1514368954.58,44808,8.0,71864.3,-4.85,-8.11,-8.03,0,*5A
1514368955.86,44809,8.0,71866.3,-4.85,-7.61,-7.61,0,*58
1514368957.11,44810,8.0,71862.0,-4.85,-8.25,-8.11,0,*57
1514368958.33,44811,8.0,71866.3,-4.89,-8.37,-8.45,0,*58
1514368959.58,44812,8.0,71882.8,-4.87,-7.95,-7.95,0,*50
1514368960.82,44813,8.0,71916.0,-4.87,-7.35,-7.35,0,*51
1514368962.04,44814,8.0,71852.5,-4.87,-7.43,-7.53,0,*57
1514368963.23,44815,8.0,71892.3,-4.87,-8.21,-8.17,0,*52
1514368964.48,44816,8.0,71892.0,-4.89,-8.17,-8.03,0,*5F
1514368965.73,44817,8.0,71864.3,-4.89,-7.83,-7.91,0,*58
1514368966.99,44818,8.0,71896.8,-4.89,-7.39,-7.35,0,*58
1514368968.22,44819,8.0,71882.8,-4.87,-7.27,-7.23,0,*5F
1514368969.49,44820,8.0,71922.5,-4.89,-7.43,-7.39,0,*52
1514368970.71,44821,8.0,71836.3,-4.87,-7.57,-7.53,0,*54
1514368971.91,44822,8.0,71872.0,-4.87,-8.17,-8.21,0,*56
1514368973.13,44823,8.0,71850.3,-4.89,-8.37,-8.45,0,*59
1514368974.36,44824,8.0,71860.8,-4.89,-8.71,-8.59,0,*51
1514368975.61,44825,8.0,71896.0,-4.89,-8.21,-8.07,0,*5E
1514368976.88,44826,8.0,71872.8,-4.89,-7.39,-7.27,0,*56
1514368978.13,44827,8.0,71904.5,-4.89,-7.65,-7.53,0,*5D
1514368979.34,44828,8.0,71886.8,-4.91,-7.49,-7.39,0,*59
1514368980.6,44829,8.0,71912.5,-4.91,-8.11,-8.07,0,*58
1514368981.8,44830,8.0,71932.0,-4.91,-8.41,-8.37,0,*56
1514368983.05,44831,8.0,71950.5,-4.91,-8.07,-7.95,0,*52
1514368984.32,44832,8.0,71912.0,-4.93,-7.69,-7.57,0,*5A
1514368985.56,44833,8.0,71876.5,-4.91,-7.31,-7.31,0,*54
1514368986.79,44834,8.0,71926.8,-4.91,-7.61,-7.49,0,*59
1514368988.03,44835,8.0,71914.0,-4.91,-7.05,-7.01,0,*56
1514368989.28,44836,8.0,71910.8,-4.91,-7.69,-7.57,0,*5C
1514368990.55,44837,8.0,71926.0,-4.89,-7.43,-7.39,0,*54
1514368991.8,44838,8.0,71902.0,-4.87,-7.69,-7.65,0,*54
1514368993.06,44839,8.0,71896.3,-4.89,-8.03,-8.03,0,*57
1514368994.33,44840,8.0,71926.5,-4.89,-7.95,-7.95,0,*59
1514368995.57,44841,8.0,71958.3,-4.91,-7.99,-7.95,0,*5D
1514368996.77,44842,8.0,71932.5,-4.91,-7.83,-7.83,0,*52
1514368998.03,44843,8.0,71900.8,-4.91,-7.57,-7.43,0,*56
1514368999.28,44844,8.0,71828.5,-4.93,-7.83,-7.73,0,*59
1514369000.47,44845,8.0,71826.8,-4.91,-8.67,-8.63,0,*51
1514369001.7,44846,8.0,71840.0,-4.93,-8.89,-8.93,0,*5F
1514369002.92,44847,8.0,71870.8,-4.93,-8.75,-8.75,0,*55
1514369004.15,44848,8.0,71862.5,-4.97,-8.85,-8.85,0,*5E
1514369005.38,44849,8.0,71860.0,-4.97,-8.93,-8.93,0,*5F
1514369006.59,44850,8.0,71880.8,-4.97,-8.67,-8.67,0,*57
1514369007.81,44851,8.0,71910.8,-5.03,-8.59,-8.63,0,*53
1514369008.99,44852,8.0,71928.0,-5.01,-8.29,-8.29,0,*5B
1514369010.19,44853,8.0,71918.3,-5.01,-8.21,-8.21,0,*5A
1514369011.4,44854,8.0,71906.8,-5.03,-8.29,-8.21,0,*57
1514369012.65,44855,8.0,71918.3,-5.03,-8.17,-8.03,0,*5B
1514369013.87,44856,8.0,71928.3,-5.03,-7.23,-7.15,0,*58
1514369015.05,44857,8.0,71844.5,-5.01,-8.33,-8.29,0,*55
1514369016.32,44858,8.0,71802.0,-5.03,-7.77,-7.69,0,*5C
1514369017.56,44859,8.0,71806.8,-5.03,-7.53,-7.57,0,*56
1514369018.84,44860,8.0,71864.5,-5.03,-8.07,-8.07,0,*58
1514369020.08,44861,8.0,71906.8,-5.03,-7.83,-7.69,0,*5D
1514369021.33,44862,8.0,71902.8,-5.03,-7.35,-7.23,0,*5D
1514369022.55,44863,8.0,71930.5,-5.03,-6.89,-6.85,0,*57
1514369023.75,44864,8.0,71928.0,-5.01,-6.55,-6.47,0,*5D
1514369024.94,44865,8.0,71936.5,-5.01,-6.47,-6.47,0,*5F
1514369026.17,44866,8.0,71922.3,-4.97,-6.43,-6.31,0,*57
1514369027.45,44867,8.0,71914.5,-4.97,-7.35,-7.43,0,*52
1514369028.67,44868,8.0,71942.3,-4.95,-6.97,-6.85,0,*5D
1514369029.87,44869,8.0,71958.0,-4.95,-6.51,-6.51,0,*5F
1514369031.07,44870,8.0,71952.5,-4.95,-6.43,-6.31,0,*52
1514369032.29,44871,8.0,71940.8,-4.95,-6.19,-6.13,0,*5C
1514369033.51,44872,8.0,71910.8,-4.93,-6.89,-6.89,0,*53
1514369034.75,44873,8.0,71970.8,-4.91,-7.01,-6.93,0,*5A
1514369035.99,44874,8.0,71872.8,-4.91,-7.39,-7.39,0,*57
1514369037.19,44875,8.0,71808.5,-4.91,-8.33,-8.21,0,*55
1514369038.41,44876,8.0,71858.3,-4.91,-8.07,-8.21,0,*51
1514369039.68,44877,8.0,71842.3,-4.93,-7.95,-7.95,0,*56
1514369040.96,44878,8.0,71922.5,-4.93,-8.07,-8.07,0,*59
1514369042.24,44879,8.0,71864.0,-4.93,-7.43,-7.57,0,*5D
1514369043.51,44880,8.0,71812.0,-4.93,-8.11,-8.11,0,*5E
1514369044.76,44881,8.0,71854.8,-4.97,-7.53,-7.61,0,*5A
1514369046.04,44882,8.0,71870.0,-4.97,-8.11,-8.03,0,*5B
1514369047.23,44883,8.0,71866.0,-4.95,-8.37,-8.45,0,*5E
1514369048.45,44884,8.0,71888.3,-4.97,-8.59,-8.71,0,*54
1514369049.67,44885,8.0,71890.5,-4.97,-8.55,-8.59,0,*53
1514369050.92,44886,8.0,71876.8,-4.95,-8.11,-8.03,0,*5D
1514369052.17,44887,8.0,71876.8,-4.97,-7.87,-7.73,0,*56
1514369053.41,44888,8.0,71884.5,-4.95,-7.77,-7.77,0,*50
1514369054.69,44889,8.0,71886.0,-4.97,-7.43,-7.35,0,*52
1514369055.93,44890,8.0,71840.3,-4.95,-7.35,-7.31,0,*5D
1514369057.15,44891,8.0,71902.0,-4.95,-7.11,-7.05,0,*5D
1514369058.34,44892,8.0,71882.5,-4.95,-7.23,-7.19,0,*52
1514369059.62,44893,8.0,71902.5,-4.97,-6.97,-6.97,0,*58
1514369060.86,44894,8.0,71910.3,-4.95,-6.63,-6.63,0,*5D
1514369062.08,44895,8.0,71912.8,-4.93,-6.77,-6.77,0,*5A
1514369063.33,44896,8.0,71894.3,-4.93,-7.05,-7.15,0,*58
1514369064.54,44897,8.0,71894.8,-4.91,-6.81,-6.81,0,*5A
1514369065.74,44898,8.0,71896.5,-4.91,-6.89,-6.81,0,*5D
1514369066.99,44899,8.0,71846.3,-4.89,-7.23,-7.27,0,*59
1514369068.22,44900,8.0,71860.8,-4.89,-7.23,-7.11,0,*5D
1514369069.46,44901,8.0,71902.5,-4.89,-6.63,-6.59,0,*54
1514369070.69,44902,8.0,71932.5,-4.89,-6.89,-6.85,0,*52
1514369071.93,44903,8.0,71904.8,-4.87,-7.01,-7.01,0,*51
1514369073.18,44904,8.0,71844.3,-4.87,-7.01,-6.97,0,*58
1514369074.4,44905,8.0,71842.0,-4.89,-6.59,-6.55,0,*55
1514369075.67,44906,8.0,71918.3,-4.85,-6.27,-6.19,0,*5B
1514369076.88,44907,8.0,71922.5,-4.83,-6.51,-6.55,0,*55
1514369078.08,44908,8.0,71872.5,-4.83,-7.19,-7.11,0,*56
1514369079.33,44909,8.0,71866.3,-4.85,-7.49,-7.39,0,*5E
1514369080.57,44910,8.0,71876.8,-4.85,-6.85,-6.93,0,*56
1514369081.77,44911,8.0,71882.3,-4.83,-6.51,-6.43,0,*55
1514369082.97,44912,8.0,71904.3,-4.83,-6.55,-6.51,0,*51
1514369084.2,44913,8.0,71900.8,-4.81,-7.19,-7.15,0,*5A
1514369085.47,44914,8.0,71916.8,-4.81,-7.35,-7.31,0,*55
1514369086.69,44915,8.0,71922.0,-4.81,-6.81,-6.89,0,*58
1514369087.97,44916,8.0,71916.8,-4.81,-6.93,-6.93,0,*53
1514369089.2,44917,8.0,71924.8,-4.81,-6.81,-6.81,0,*52
1514369090.42,44918,8.0,71920.8,-4.81,-7.19,-7.19,0,*5D
1514369091.69,44919,8.0,71900.8,-4.81,-7.61,-7.57,0,*59
1514369092.94,44920,8.0,71902.5,-4.81,-7.87,-7.73,0,*5D
1514369094.21,44921,8.0,71894.8,-4.81,-7.95,-7.95,0,*57
1514369095.49,44922,8.0,71900.8,-4.81,-8.07,-8.07,0,*54
1514369096.71,44923,8.0,71922.3,-4.83,-7.99,-7.87,0,*58
1514369097.98,44924,8.0,71906.8,-4.85,-7.05,-6.97,0,*5C
1514369099.18,44925,8.0,71910.8,-4.83,-6.55,-6.51,0,*55
1514369100.37,44926,8.0,71926.5,-4.83,-6.69,-6.59,0,*51
1514369101.58,44927,8.0,71936.3,-4.83,-6.55,-6.51,0,*57
1514369102.8,44928,8.0,71930.3,-4.81,-6.51,-6.39,0,*50
1514369104.04,44929,8.0,71932.5,-4.81,-6.23,-6.09,0,*57
1514369105.26,44930,8.0,71908.0,-4.79,-6.35,-6.27,0,*53
1514369106.48,44931,8.0,71918.5,-4.79,-6.63,-6.55,0,*54
1514369107.7,44932,8.0,71960.3,-4.77,-6.35,-6.35,0,*5C
1514369108.93,44933,8.0,71918.8,-4.77,-7.23,-7.23,0,*5D
1514369110.15,44934,8.0,71868.3,-4.77,-7.53,-7.53,0,*5A
1514369111.36,44935,8.0,71868.8,-4.79,-7.15,-7.05,0,*54
1514369112.61,44936,8.0,71894.0,-4.77,-7.57,-7.53,0,*5C
1514369113.88,44937,8.0,71890.0,-4.81,-7.01,-7.01,0,*50
1514369115.1,44938,8.0,71914.5,-4.79,-7.01,-6.89,0,*59
1514369116.32,44939,8.0,71912.5,-4.77,-6.89,-6.85,0,*5B
1514369117.55,44940,8.0,71910.3,-4.79,-7.05,-7.05,0,*57
1514369118.75,44941,8.0,71948.8,-4.79,-7.19,-7.15,0,*5A
1514369119.97,44942,8.0,71932.8,-4.77,-6.89,-6.85,0,*57
1514369121.24,44943,8.0,71934.8,-4.77,-7.31,-7.27,0,*5D
1514369122.47,44944,8.0,71940.0,-4.77,-7.11,-7.11,0,*5D
1514369123.7,44945,8.0,71932.3,-4.77,-7.15,-7.15,0,*5C
1514369124.95,44946,8.0,71954.8,-4.77,-7.01,-7.11,0,*5E
1514369126.18,44947,8.0,71978.0,-4.77,-6.77,-6.73,0,*5A
1514369127.43,44948,8.0,71966.3,-4.77,-6.59,-6.63,0,*58
1514369128.7,44949,8.0,71952.0,-4.77,-6.97,-6.97,0,*50
1514369129.92,44950,8.0,71940.5,-4.77,-6.73,-6.73,0,*58
1514369131.17,44951,8.0,71948.3,-4.73,-6.31,-6.27,0,*5A
1514369132.39,44952,8.0,71928.8,-4.73,-6.43,-6.43,0,*5E
1514369133.58,44953,8.0,71916.8,-4.71,-6.73,-6.59,0,*55
1514369134.77,44954,8.0,71890.8,-4.71,-6.81,-6.69,0,*5C
1514369135.99,44955,8.0,71920.5,-4.77,-6.89,-6.77,0,*5C
1514369137.24,44956,8.0,71922.5,-4.73,-7.23,-7.27,0,*5E
1514369138.45,44957,8.0,71854.3,-4.73,-8.21,-8.29,0,*53
1514369139.72,44958,8.0,71724.3,-4.77,-7.95,-7.95,0,*50
1514369140.99,44959,8.0,71788.0,-4.77,-7.95,-8.03,0,*51
1514369142.27,44960,8.0,71854.0,-4.77,-7.57,-7.57,0,*5B
1514369143.51,44961,8.0,71874.8,-4.77,-7.43,-7.53,0,*5B
1514369144.78,44962,8.0,71872.5,-4.77,-7.31,-7.27,0,*5E
1514369146.03,44963,8.0,71906.5,-4.79,-7.43,-7.43,0,*56
1514369147.27,44964,8.0,71924.8,-4.81,-7.15,-7.05,0,*57
1514369148.52,44965,8.0,71920.0,-4.79,-6.93,-6.93,0,*50
1514369149.76,44966,8.0,71778.0,-4.79,-8.11,-7.99,0,*5C
1514369150.97,44967,8.0,71812.0,-4.81,-8.29,-8.29,0,*55
1514369152.2,44968,8.0,71836.3,-4.81,-8.93,-8.93,0,*5A
1514369153.42,44969,8.0,71828.8,-4.85,-8.67,-8.71,0,*58
1514369154.64,44970,8.0,71832.5,-4.85,-8.41,-8.33,0,*52
1514369155.86,44971,8.0,71838.0,-4.85,-8.29,-8.29,0,*56
1514369157.07,44972,8.0,71824.8,-4.87,-8.51,-8.63,0,*56
1514369158.29,44973,8.0,71828.0,-4.89,-8.75,-8.63,0,*5F
1514369159.52,44974,8.0,71846.5,-4.89,-8.75,-8.85,0,*50
1514369160.74,44975,8.0,71848.8,-4.89,-8.63,-8.71,0,*5D
1514369161.94,44976,8.0,71852.3,-4.91,-8.93,-8.93,0,*54
1514369163.16,44977,8.0,71858.3,-4.93,-8.55,-8.63,0,*52
1514369164.39,44978,8.0,71862.3,-4.97,-8.41,-8.41,0,*5C
1514369165.58,44979,8.0,71870.5,-4.95,-8.25,-8.25,0,*5F
1514369166.82,44980,8.0,71900.8,-4.95,-8.11,-8.11,0,*59
1514369168.1,44981,8.0,71926.8,-4.97,-8.11,-7.99,0,*55
1514369169.35,44982,8.0,71884.5,-4.97,-7.53,-7.61,0,*58
1514369170.57,44983,8.0,71898.8,-4.97,-7.53,-7.53,0,*58
1514369171.81,44984,8.0,71906.8,-4.95,-7.35,-7.35,0,*5D
1514369173.09,44985,8.0,71902.3,-4.97,-7.99,-7.91,0,*56
1514369174.36,44986,8.0,71928.5,-4.97,-7.91,-7.91,0,*5D
1514369175.61,44987,8.0,71904.0,-4.97,-7.87,-7.77,0,*53
1514369176.86,44988,8.0,71940.0,-4.97,-7.87,-7.77,0,*5C
1514369178.1,44989,8.0,71950.3,-5.01,-7.35,-7.27,0,*5F
1514369179.37,44990,8.0,71952.5,-4.97,-7.05,-7.05,0,*5A
1514369180.64,44991,8.0,71938.8,-4.97,-6.97,-6.93,0,*5F
1514369181.89,44992,8.0,71918.5,-4.97,-7.35,-7.23,0,*5F
1514369183.17,44993,8.0,71920.3,-4.97,-7.43,-7.43,0,*59
1514369184.42,44994,8.0,71950.0,-4.95,-7.43,-7.43,0,*5C
1514369185.69,44995,8.0,71940.5,-4.97,-7.91,-7.91,0,*5F
1514369186.94,44996,8.0,71892.5,-4.95,-7.73,-7.65,0,*59
1514369188.17,44997,8.0,71848.5,-4.97,-8.37,-8.25,0,*5E
1514369189.35,44998,8.0,71872.5,-4.95,-8.29,-8.29,0,*50
1514369190.57,44999,8.0,71868.0,-4.97,-8.29,-8.29,0,*53
1514369191.77,45000,7.94,71868.5,-5.01,-8.45,-8.45,0,*55
1514369193.02,45001,8.0,71872.3,-5.03,-8.17,-8.07,0,*57
1514369194.24,45002,7.94,71874.5,-5.01,-7.91,-7.83,0,*54
1514369195.48,45003,8.0,71898.0,-5.01,-7.69,-7.65,0,*5A
1514369196.75,45004,8.0,71912.5,-5.03,-7.39,-7.27,0,*5C
1514369197.97,45005,8.0,71906.3,-5.03,-7.23,-7.11,0,*53
1514369199.16,45006,8.0,71904.0,-5.01,-6.89,-6.77,0,*52
1514369200.35,45007,8.0,71906.0,-5.01,-6.69,-6.55,0,*5D
1514369201.55,45008,8.0,71880.5,-4.95,-6.55,-6.51,0,*55
1514369202.77,45009,8.0,71886.0,-4.97,-6.69,-6.55,0,*5D
1514369204.02,45010,8.0,71876.3,-4.93,-6.23,-6.13,0,*5D
1514369205.24,45011,7.94,71904.0,-4.91,-6.01,-5.89,0,*5E
1514369206.44,45012,8.0,71896.3,-4.91,-6.47,-6.39,0,*57
1514369207.68,45013,8.0,71872.3,-4.89,-7.01,-6.89,0,*57
1514369208.91,45014,8.0,71942.8,-4.89,-7.11,-6.89,0,*51
1514369210.14,45015,8.0,71972.5,-4.89,-6.35,-6.31,0,*54
1514369211.39,45016,8.0,71936.3,-4.87,-7.01,-7.01,0,*5D
1514369212.63,45017,8.0,71916.3,-4.85,-7.53,-7.31,0,*5A
1514369213.86,45018,8.0,71820.3,-4.85,-6.81,-6.73,0,*5C
1514369215.11,45019,8.0,71858.3,-4.85,-7.61,-7.53,0,*51
1514369216.36,45020,8.0,71896.3,-4.85,-8.11,-7.87,0,*5A
1514369217.61,45021,8.0,71894.0,-4.85,-7.35,-7.23,0,*5C
1514369218.81,45022,7.94,71898.0,-4.87,-7.23,-7.15,0,*5F
1514369220.06,45023,7.94,71884.5,-4.87,-7.35,-7.27,0,*58
1514369221.3,45024,8.0,71906.8,-4.87,-7.95,-8.03,0,*5C
1514369222.52,45025,8.0,71892.0,-4.87,-8.17,-8.07,0,*5C
1514369223.75,45026,8.0,71928.3,-4.87,-7.83,-7.77,0,*55
1514369224.97,45027,8.0,71928.3,-4.89,-8.17,-8.17,0,*51
1514369226.19,45028,7.94,71924.0,-4.89,-8.63,-8.75,0,*59
1514369227.41,45029,8.0,71922.3,-4.93,-8.21,-8.21,0,*54
1514369228.68,45030,8.0,71988.5,-4.93,-7.95,-7.95,0,*5C
1514369229.91,45031,8.0,71970.3,-4.91,-7.57,-7.49,0,*50
1514369231.15,45032,8.0,71932.3,-4.91,-7.39,-7.31,0,*54
1514369232.41,45033,8.0,71866.0,-4.93,-7.99,-7.95,0,*53
1514369233.67,45034,8.0,71888.8,-4.93,-8.07,-7.87,0,*5F
1514369234.92,45035,8.0,71908.3,-4.93,-7.61,-7.49,0,*53
1514369236.17,45036,7.94,71886.5,-4.93,-8.51,-8.41,0,*5B
1514369237.39,45037,8.0,71894.8,-4.95,-8.71,-8.81,0,*52
1514369238.62,45038,8.0,71902.3,-4.97,-8.85,-8.93,0,*57
1514369239.83,45039,8.0,71894.0,-4.97,-8.67,-8.67,0,*51
1514369241.02,45040,8.0,71888.3,-5.01,-8.41,-8.21,0,*57
1514369242.24,45041,8.0,71908.3,-5.03,-8.41,-8.33,0,*57
1514369243.51,45042,7.94,71934.5,-5.03,-7.65,-7.57,0,*50
1514369244.73,45043,8.0,71936.0,-5.01,-7.15,-7.01,0,*57
1514369245.93,45044,8.0,71914.5,-5.01,-7.15,-7.11,0,*51
1514369247.17,45045,8.0,71926.3,-5.01,-7.35,-7.35,0,*54
1514369248.44,45046,8.0,71932.0,-5.03,-7.35,-7.35,0,*55
1514369249.69,45047,8.0,71928.5,-4.97,-7.23,-7.05,0,*5C
1514369250.96,45048,7.94,71874.5,-4.97,-7.05,-6.93,0,*59
1514369252.21,45049,8.0,71866.8,-4.97,-7.53,-7.43,0,*57
1514369253.49,45050,8.0,71904.5,-4.97,-7.43,-7.35,0,*5F
1514369254.7,45051,7.94,71912.5,-4.97,-6.73,-6.69,0,*54
1514369255.89,45052,8.0,71910.5,-4.95,-6.73,-6.69,0,*55
1514369257.12,45053,8.0,71942.5,-4.95,-6.31,-6.19,0,*55
1514369258.35,45054,8.0,71818.5,-4.95,-6.97,-7.05,0,*52
1514369259.6,45055,8.0,71844.5,-4.91,-7.01,-6.93,0,*57
1514369260.85,45056,7.94,71858.0,-4.93,-7.57,-7.49,0,*53
1514369262.12,45057,8.0,71886.8,-4.93,-7.39,-7.27,0,*52
1514369263.39,45058,8.0,71894.5,-4.93,-7.01,-7.01,0,*52
1514369264.64,45059,7.94,71920.0,-4.93,-7.15,-7.01,0,*56
1514369265.89,45060,8.0,71966.5,-4.93,-7.19,-7.05,0,*54
1514369267.13,45061,7.94,71898.8,-4.93,-7.15,-7.01,0,*5D
1514369268.35,45062,7.94,71892.3,-4.91,-7.27,-7.19,0,*54
1514369269.6,45063,8.0,71892.8,-4.91,-7.31,-7.27,0,*5F
1514369270.84,45064,7.94,71874.5,-4.91,-7.39,-7.27,0,*50
1514369272.11,45065,8.0,71912.3,-4.89,-7.39,-7.39,0,*57
1514369273.36,45066,7.94,71884.0,-4.91,-7.43,-7.39,0,*50
1514369274.6,45067,8.0,71886.5,-4.91,-7.31,-7.27,0,*5B
1514369275.84,45068,7.94,71876.8,-4.91,-7.31,-7.31,0,*53
1514369277.07,45069,8.0,71892.5,-4.89,-7.23,-7.11,0,*5A
1514369278.3,45070,8.0,71906.0,-4.91,-7.49,-7.43,0,*50
1514369279.58,45071,7.94,71910.0,-4.89,-7.57,-7.43,0,*57
1514369280.83,45072,7.94,71912.5,-4.89,-7.57,-7.53,0,*55
1514369282.1,45073,7.94,71900.3,-4.89,-7.35,-7.35,0,*50
1514369283.36,45074,7.94,71910.3,-4.87,-7.57,-7.43,0,*5C
1514369284.6,45075,7.94,71906.3,-4.87,-6.97,-6.97,0,*58
1514369285.85,45076,8.0,71930.0,-4.89,-7.53,-7.43,0,*54
1514369287.1,45077,7.94,71936.8,-4.87,-7.95,-8.03,0,*5A
1514369288.35,45078,7.94,71896.3,-4.89,-7.11,-6.97,0,*54
1514369289.62,45079,7.94,71902.0,-4.89,-7.27,-7.27,0,*5A
1514369290.88,45080,7.94,71900.3,-4.89,-8.03,-8.03,0,*5C
1514369292.11,45081,8.0,71908.3,-4.89,-8.17,-8.17,0,*5D
1514369293.36,45082,8.0,71916.5,-4.91,-8.11,-8.11,0,*57
1514369294.64,45083,8.0,71926.3,-4.93,-7.73,-7.73,0,*54
1514369295.84,45084,7.94,71932.8,-4.91,-7.87,-7.87,0,*51
1514369297.11,45085,7.94,71930.3,-4.93,-7.61,-7.61,0,*52
1514369298.31,45086,7.94,71936.5,-4.91,-7.83,-7.83,0,*53
1514369299.54,45087,7.94,71934.3,-4.93,-7.87,-7.83,0,*54
1514369300.76,45088,8.0,71928.8,-4.93,-8.33,-8.37,0,*5B
1514369302.01,45089,7.94,71944.3,-4.93,-8.51,-8.21,0,*59
1514369303.3,45090,8.0,71944.3,-4.93,-8.07,-8.07,0,*56
1514369304.52,45091,8.0,71930.8,-4.95,-8.17,-8.11,0,*57
1514369305.74,45092,7.94,71936.8,-4.97,-8.25,-8.25,0,*50
1514369306.99,45093,8.0,71920.8,-4.97,-8.11,-8.45,0,*50
1514369308.18,45094,7.94,71930.3,-5.01,-8.63,-8.71,0,*5B
1514369309.43,45095,7.94,71956.3,-5.03,-7.95,-7.83,0,*5C
1514369310.65,45096,8.0,71940.8,-5.03,-8.17,-8.17,0,*58
1514369311.86,45097,7.94,71946.0,-5.03,-8.59,-8.71,0,*53
1514369313.12,45098,7.94,71954.8,-5.03,-7.95,-8.03,0,*56
1514369314.34,45099,8.0,71934.3,-5.03,-8.59,-8.45,0,*5A
1514369315.54,45100,7.94,71930.0,-5.05,-8.37,-8.33,0,*54
1514369316.75,45101,8.0,71928.3,-5.07,-8.67,-8.75,0,*50
1514369317.98,45102,8.0,71902.3,-5.07,-9.01,-9.05,0,*54
1514369319.19,45103,7.94,71910.8,-5.09,-8.85,-8.85,0,*5F
1514369320.38,45104,7.94,71910.3,-5.09,-8.59,-8.59,0,*58
1514369321.59,45105,8.0,71904.0,-5.11,-8.63,-8.63,0,*50
1514369322.81,45106,8.0,71908.0,-5.11,-8.29,-8.21,0,*5B
1514369324.03,45107,7.94,71872.5,-5.11,-8.75,-8.89,0,*51
1514369325.28,45108,8.0,71896.3,-5.11,-9.15,-9.23,0,*58
1514369326.47,45109,7.94,71912.0,-5.17,-8.63,-8.67,0,*5E